Regional Weather Roundup
Issued by NWS

Home | Current Version | Previous Version | Text Only | Print | Product List | Glossary On
Versions: 1 2 3 4 5 6 7 8 9 10 11 12 13 14 15 16 17 18 19 20 21 22 23 24 25 26 27 28 29 30 31 32 33 34 35 36 37 38 39 40 41 42 43 44 45 46 47 48 49 50
000
ASUS45 KBOU 202107
RWRCO

WEATHER ROUNDUP FOR COLORADO
NATIONAL WEATHER SERVICE DENVER/BOULDER CO
300 PM MDT WED AUG 20 2014

NOTE: "FAIR" INDICATES FEW OR NO CLOUDS BELOW 12000 FEET WITH NO
SIGNIFICANT WEATHER AND/OR OBSTRUCTIONS TO VISIBILITY.

COZ001>005-013-030-031-202200-
...NORTHWEST COLORADO...

CITY           SKY/WX    TMP DP  RH WIND       PRES   REMARKS
CRAIG          MOSUNNY   70  56  61 NW8       30.09F
HAYDEN         PTSUNNY   66  52  59 N7        30.11F
MEEKER         RAIN      63  54  72 NW17      30.11R
MOUNT WERNER   NOT AVBL
STEAMBOAT SPGS CLOUDY    63  53  70 NW7       30.14S
WALDEN         CLOUDY    59  45  58 W18       30.19R
$$

COZ006>008-011-202200-
...WEST CENTRAL VALLEYS...

CITY           SKY/WX    TMP DP  RH WIND       PRES   REMARKS
GRAND JUNCTION SUNNY     77  54  44 VRB7      30.01F
MONTROSE       MOSUNNY   81  48  31 N9        30.06F
EAGLE          MOSUNNY   73  46  38 S13G18    30.12F
RIFLE          MOSUNNY   80  47  31 W17G28    30.02F
DELTA          MOSUNNY   83  46  26 W3        30.02F
NUCLA          LGT RAIN  75  46  35 SW12G18   30.12S
$$

COZ017>023-064>068-202200-
...SOUTHWEST COLORADO...

CITY           SKY/WX    TMP DP  RH WIND       PRES   REMARKS
DURANGO        SUNNY     78  35  21 W15G25    30.12F
CORTEZ         SUNNY     80  39  23 W17G23    30.11F
PAGOSA SPRINGS PTSUNNY   74  33  22 SW6G18    30.19F
TELLURIDE      PTSUNNY   68  41  37 W8        30.27F
WOLF CREEK PAS NOT AVBL
$$

COZ009-010-012-014-032>034-037-058>063-202200-
...CENTRAL COLORADO...

CITY           SKY/WX    TMP DP  RH WIND       PRES   REMARKS
ASPEN          MOSUNNY   66  49  54 MISG      30.19F
BUENA VISTA    PTSUNNY   75  37  24 W12G20    30.14S
COPPER MTN     CLOUDY    54  41  62 W26G35    30.46S
BERTHOUD PASS  LGT RAIN  46  45  93 W16       30.50S
COTTONWOOD PAS PTSUNNY   70  32  24 W9        30.29S
GUNNISON       MOSUNNY   73  43  33 NW8       30.18F
KREMMLING      MOSUNNY   73  39  29 SW9G17    30.14S
LEADVILLE      PTSUNNY   61  41  47 NW12G24   30.29S
MONARCH PASS   MOSUNNY   54  36  50 W25       30.55S
SALIDA         MOSUNNY   82  37  19 W9G21     30.17F
SUNLIGHT       CLOUDY    55  50  82 CALM      30.41S
WILKERSON PASS NOT AVBL
$$

COZ069>075-202200-
...SAN LUIS VALLEY/SANGRE DE CRISTO MOUNTAINS...

CITY           SKY/WX    TMP DP  RH WIND       PRES   REMARKS
ALAMOSA        MOSUNNY   77  43  29 S10       30.13F
LA VETA PASS   NOT AVBL
SAGUACHE       PTSUNNY   72  41  33 E3        30.16S
$$

COZ035-036-038>040-202200-
...NORTHERN COLORADO FRONT RANGE...

CITY           SKY/WX    TMP DP  RH WIND       PRES   REMARKS
DENVER INTL AP PTSUNNY   82  52  35 SE5       29.94S
DMNS CITY PARK   N/A     85  47  26 S7G14     29.92F
AURORA         PTSUNNY   82  47  29 NE3       29.96F
FRONT RANGE AP NOT AVBL
ERIE MUNI ARPT MOSUNNY   86  39  18 W10       29.90F
BOULDER MUN AP MOSUNNY   88  37  16 W9        29.91F
CENTENNIAL     PTSUNNY   80  49  33 S9        29.98S
BROOMFIELD     PTSUNNY   88  43  20 SE8       29.95
FORT COLLINS   SUNNY     90  52  27 N12G18    29.88F
LONGMONT       SUNNY     85  42  21 W3        29.91F
$$

COZ041-046-047-076>085-087-088-202200-
...PIKES PEAK/PALMER DIVIDE AND SOUTHERN FOOTHILLS...

CITY           SKY/WX    TMP DP  RH WIND       PRES   REMARKS
COLO. SPRINGS  CLOUDY    82  46  28 SW8       30.00S
A. F. ACADEMY  PTSUNNY   78  45  31 N8        30.03S
ELLICOTT       CLOUDY    83  46  27 VRB7      29.98F
FALCON         CLOUDY    80  47  30 E7        30.06S
FORT CARSON    PTSUNNY   84  48  28 NE3       29.97F
LIMON          PTSUNNY   86  47  25 NE8       29.93F
MONUMENT HILL  CLOUDY    72  48  43 E6        30.08R
TRINIDAD       PTSUNNY   87  45  23 CALM      29.96F
$$

COZ042>045-048>051-090-091-202200-
...NORTHEAST COLORADO...

CITY           SKY/WX    TMP DP  RH WIND       PRES   REMARKS
GREELEY ARPT   SUNNY     86  50  28 E6        29.90F
AKRON          MOSUNNY   86  52  30 VRB6      29.89F
BURLINGTON     PTSUNNY   90  53  28 N10       29.85F
WRAY             N/A     93  51  23 NE6       29.82F
STERLING       MOSUNNY   91  59  33 S5        29.83F
HOLYOKE        NOT AVBL
FORT MORGAN    MOSUNNY   88  50  26 SE8       29.89F
$$

COZ086-089-092>099-202200-
...SOUTHEAST COLORADO...

CITY           SKY/WX    TMP DP  RH WIND       PRES   REMARKS
PUEBLO         CLOUDY    92  45  19 NW9G17    29.87F
LA JUNTA       PTSUNNY   93  48  21 NW6       29.83F
LAMAR          PTSUNNY   98  45  16 S7G18     29.78F
SPRINGFIELD      N/A     96  47  18 SW15G25   29.85F
$$



USA.gov is the U.S. government's official web portal to all federal, state and local government web resources and services.